Location: AUGO Fort Vermillion
(58.3775°N, 116.0058°W)
Time: 03:57:19
(UTC-06:00)

ISS - Visible Passes

Search period start: 25 March 2019 00:00
Search period end: 04 April 2019 00:00
Orbit: 408 x 411 km, 51.6° (Epoch: 25 March)

Date Brightness Start Highest point End Pass type
(mag) Time Alt. Az. Time Alt. Az. Time Alt. Az.
25 Mar -1.8 21:01:45 10° S 21:03:42 15° SSE 21:05:31 11° ESE visible
25 Mar -1.9 22:36:48 10° SW 22:38:18 19° SSW 22:38:18 19° SSW visible
26 Mar -2.4 21:46:27 10° SW 21:49:07 23° S 21:49:52 21° SSE visible
26 Mar -1.0 23:22:22 10° WSW 23:22:39 12° WSW 23:22:39 12° WSW visible
27 Mar -2.1 20:56:10 10° SSW 20:58:40 20° SSE 21:01:11 10° ESE visible
27 Mar -2.3 22:31:50 10° WSW 22:34:08 24° SSW 22:34:08 24° SSW visible
28 Mar -2.4 21:41:22 10° SW 21:44:09 25° S 21:45:34 19° SE visible
28 Mar -1.2 23:17:38 10° WSW 23:18:19 13° WSW 23:18:19 13° WSW visible
29 Mar -2.2 22:26:58 10° WSW 22:29:38 22° SSW 22:29:41 22° S visible
30 Mar -2.3 21:36:23 10° WSW 21:39:08 24° S 21:41:02 15° SE visible
30 Mar -1.2 23:13:09 10° WSW 23:13:48 12° SW 23:13:48 12° SW visible
31 Mar -1.9 22:22:15 10° WSW 22:24:33 18° SSW 22:25:07 17° S visible
01 Apr -2.0 21:31:30 10° WSW 21:34:04 21° SSW 21:36:26 11° SSE visible
02 Apr -1.3 22:17:54 10° SW 22:19:20 12° SSW 22:20:31 11° S visible
03 Apr -1.5 21:26:48 10° WSW 21:28:52 16° SSW 21:30:57 10° SSE visible
